Regional Weather Roundup
Issued by NWS Sterling, VA

Home | Current Version | Previous Version | Graphics & Text | Print | Product List | Glossary On
Versions: 1 2 3 4 5 6 7 8 9 10 11 12 13 14 15 16 17 18 19 20 21 22 23 24 25 26 27 28 29 30 31 32 33 34 35 36 37 38 39 40 41 42 43 44 45 46 47 48 49 50
000
ASUS41 KLWX 211910
RWRLWX

REGIONAL WEATHER ROUNDUP
NATIONAL WEATHER SERVICE BALTIMORE MD/WASHINGTON DC
300 PM EDT TUE OCT 21 2014

Note: "FAIR" indicates few or no clouds below 12,000 feet
with no significant weather and/or obstructions to visibility.
 TC=TEMPERATURE CELSIUS

 * =Non NWS site. Station does not report precipitation (e.g. rain,
    snow, etc.), thunder, or fog.

DCZ001-MDZ009-015-VAZ040>042-051-053>054-212000-
WASHINGTON METRO

CITY           SKY/WX    TMP DP  RH WIND       PRES   REMARKS
WASHINGTON NAT PTSUNNY   70  47  43 N5        29.81F
DULLES         PTSUNNY   68  46  45 N10       29.81F
ANDREWS AFB    PTSUNNY   67  47  48 N6        29.80F
FT BELVOIR     MOSUNNY   68  51  54 SE5       29.81F
QUANTICO       MOSUNNY   68  48  48 S5        29.81F
COLLEGE PARK*  MOSUNNY   68  46  45 CALM      29.81F
LEESBURG*      MOSUNNY   68  52  56 NW8       29.82F
MANASSAS*      CLOUDY    68  48  49 VRB5      29.80F
GAITHERSBURG*  PTSUNNY   66  46  48 NW5       29.85S

$$

MDZ006>007-011-014-212000-
BALTIMORE METRO

CITY           SKY/WX    TMP DP  RH WIND       PRES   REMARKS
BWI AIRPORT    MOSUNNY   70  46  42 NW9       29.80F
MD SCIENCE CTR   N/A     68  47  46 MISG      29.81F
MARTIN STATE   MOSUNNY   66  55  68 SE9       29.82F
ANNAPOLIS      PTSUNNY   65  50  58 SE7       29.81F
FORT MEADE*    MOSUNNY   64  46  52 CALM      29.83F

$$

MDZ012-015-019>023-212000-
MARYLAND EASTERN SHORE

CITY           SKY/WX    TMP DP  RH WIND       PRES   REMARKS
OCEAN CITY     MOSUNNY   70  56  61 S7        29.80F
SALISBURY      SUNNY     75  48  38 CALM      29.80F
BAY BRIDGE AP*   N/A     66  45  45 E5        29.82S
CAMBRIDGE*     SUNNY     72  45  37 N3        29.81F
EASTON*        MOSUNNY   72  46  40 NW7       29.85S

$$

MDZ017>025-212000-
SOUTHERN MARYLAND

CITY           SKY/WX    TMP DP  RH WIND       PRES   REMARKS
PATUXENT RIVER MOSUNNY   69  43  38 NE9       29.81F
ST INIGOES     SUNNY     69  44  40 E6        29.81F
LEONARDTOWN*   PTSUNNY   68  46  45 E5        29.83F

$$

MDZ003>005-212000-
NORTH CENTRAL MARYLAND

CITY           SKY/WX    TMP DP  RH WIND       PRES   REMARKS
FREDERICK*     PTSUNNY  N/A N/A N/A W7        29.84F
HAGERSTOWN APT CLOUDY    63  45  51 SW7       29.82S
WESTMINSTER*   MOSUNNY   63  46  55 N3        29.82F

$$

MDZ501>502-212000-
WESTERN MARYLAND

CITY           SKY/WX    TMP DP  RH WIND       PRES   REMARKS
OAKLAND*       CLOUDY    45 N/A N/A W3        29.87R FOG
CUMBERLAND*    CLOUDY    55  52  88 SW5       29.89S

$$

VAZ025>031-212000-
SHENANDOAH VALLEY

CITY           SKY/WX    TMP DP  RH WIND       PRES   REMARKS
WINCHESTER*    CLOUDY    63  45  51 CALM      29.83S
FRONT ROYAL*   CLOUDY    63  46  55 N3        29.81F
LURAY*         CLOUDY    64  50  59 SE5       29.82S
NEW MARKET*    CLOUDY    59  48  66 N7        29.83S
STAUNTON*      CLOUDY    65  43  43 SW9       29.83S
WAYNESBORO*    FAIR      64  44  49 SW14G22   29.82F

$$

WVZ021-048>050-054>055-212000-
EASTERN WEST VIRGINIA PANHANDLE

CITY           SKY/WX    TMP DP  RH WIND       PRES   REMARKS
MARTINSBURG    CLOUDY    62  47  57 CALM      29.84R
PETERSBURG*    RAIN     N/A N/A N/A W7        29.87S

$$

VAZ036>039-050-212000-
CENTRAL FOOTHILLS

CITY           SKY/WX    TMP DP  RH WIND       PRES   REMARKS
CHARLOTTESVILL MOSUNNY   70  43  37 SW7       29.79F
CULPEPER*      CLOUDY    64  52  63 N7        29.81F
ORANGE*        PTSUNNY   70  46  43 SE7       29.81F
GORDONSVILLE*  CLOUDY    67  48  51 S6        29.80S
WARRENTON*     CLOUDY    67  53  60 NW3       29.80F

$$

VAZ055>057-212000-
NORTH AND CENTRAL PIEDMONT

CITY           SKY/WX    TMP DP  RH WIND       PRES   REMARKS
FREDERICKSBRG* PTSUNNY   72  47  41 E6        29.79F
STAFFORD*      MOSUNNY   67  45  43 NE5       29.84F

$$

NCZ024-NYZ072-PAZ021-071-VAZ022-071-212000-
OTHER REGIONAL OBSERVATIONS

CITY           SKY/WX    TMP DP  RH WIND       PRES   REMARKS
NEW YORK CITY  PTSUNNY   66  51  58 SE8       29.86S
PHILADELPHIA   MOSUNNY   69  48  47 S6        29.81F
PITTSBURGH     LGT RAIN  53  45  74 NW15      29.88S
ROANOKE        PTSUNNY   61  46  57 NW13G20   29.89F
RICHMOND       PTSUNNY   71  46  40 W9        29.81F
RALEIGH        MOSUNNY   72  49  44 W7        29.84F

$$

ANZ530>537-212000-
MARINE OBSERVATIONS

STATION/POSITION TIME  TEMP    WIND        PRES
                       AIR SEA DIR/SP/G
                 (UTC) (F)     (DEG/KT/KT) (MB)
THOMAS PT LIGHT  1900   64 64  130/  4/  5 1010.6F
BALT KEY BRIDGE  1900   63     120/  8/  9 1009.2F
COVE POINT       1900   64      70/  4/  5 1009.5F
LEWISETTA        1900   64 64   80/  6/  7 1009.0S
SOLOMONS ISLAND  1900      66                N/A
PINEY POINT      1900          160/  4/  4   N/A

$$




USA.gov is the U.S. government's official web portal to all federal, state and local government web resources and services.